Torna al catalogo

STARLINK-31277

AttivoComunicazioniVLEO
NORAD 59651·PAYLOAD·🇺🇸 United States

Lanciato May 3, 2024 da Cape Canaveral Space Force Station

Loading…

Prossimi Passaggi (prossime 24 ore)

TLE

AggiornatoSource: CelesTrak SupGP

Epoca: Sep 15, 2026, 02:39 UTC

1 59651C 24082W   26258.11090278 -.00036106  00000+0 -13088-2 0  2580
2 59651  42.9998 150.1651 0001367 270.6195 325.8520 15.27570195    13

Traccia STARLINK-31277 in tempo reale con AllMySat

Download on the App Store